QPF
0.00 0.00 0.01 0.00 0.00 0.00 0.00 0.00 0.00 0.00 0.00 0.01 0.01 0.01 0.01 0.01 0.01 0.01 0.00 0.01 0.01 0.02 0.01 0.02 0.02 0.03 0.04 0.03 0.02 0.02 0.01 0.02 0.02 0.00 0.00 0.00 0.00 0.01 0.02 0.03 0.04 0.04 0.03 0.03
0.00 0.00 0.00 0.00 0.00 0.01 0.01 0.00 0.00 0.00 0.01 0.01 0.01 0.01 0.01 0.01 0.01 0.01 0.01 0.00 0.01 0.01 0.01 0.02 0.03 0.03 0.03 0.03 0.04 0.04 0.02 0.03 0.03 0.01 0.01 0.02 0.01 0.01 0.01 0.02 0.03 0.03 0.03 0.03
0.00 0.00 0.00 0.01 0.01 0.01 0.01 0.01 0.01 0.01 0.01 0.01 0.01 0.01 0.01 0.01 0.02 0.01 0.01 0.01 0.02 0.01 0.01 0.02 0.02 0.02 0.03 0.04 0.04 0.04 0.05 0.05 0.05 0.03 0.03 0.03 0.02 0.02 0.02 0.02 0.02 0.02 0.03 0.03
0.01 0.00 0.00 0.00 0.01 0.01 0.01 0.01 0.01 0.01 0.02 0.02 0.01 0.01 0.02 0.02 0.02 0.01 0.01 0.01 0.02 0.02 0.03 0.03 0.02 0.02 0.04 0.05 0.05 0.05 0.06 0.06 0.06 0.04 0.03 0.03 0.03 0.03 0.02 0.01 0.01 0.02 0.03 0.02
0.01 0.01 0.00 0.00 0.01 0.01 0.01 0.02 0.02 0.02 0.02 0.02 0.01 0.01 0.02 0.01 0.01 0.01 0.01 0.01 0.02 0.02 0.03 0.02 0.02 0.02 0.04 0.05 0.05 0.06 0.06 0.07 0.07 0.05 0.04 0.03 0.03 0.03 0.03 0.02 0.01 0.02 0.02 0.01
0.01 0.01 0.01 0.01 0.01 0.02 0.02 0.02 0.03 0.02 0.03 0.03 0.02 0.01 0.01 0.01 0.00 0.00 0.00 0.01 0.01 0.01 0.01 0.01 0.01 0.02 0.03 0.04 0.06 0.05 0.04 0.05 0.05 0.04 0.03 0.03 0.03 0.03 0.03 0.03 0.02 0.02 0.02 0.01
0.01 0.02 0.01 0.01 0.02 0.03 0.03 0.03 0.05 0.05 0.04 0.05 0.04 0.01 0.01 0.00 0.00 0.00 0.00 0.01 0.01 0.01 0.01 0.01 0.01 0.02 0.03 0.03 0.03 0.02 0.01 0.02 0.02 0.02 0.02 0.02 0.02 0.02 0.02 0.02 0.02 0.02 0.02 0.02
0.02 0.02 0.02 0.01 0.01 0.03 0.03 0.03 0.04 0.05 0.03 0.03 0.03 0.02 0.01 0.00 0.00 0.01 0.01 0.01 0.01 0.01 0.01 0.01 0.01 0.01 0.02 0.03 0.02 0.00 0.00 0.01 0.02 0.02 0.02 0.02 0.01 0.01 0.01 0.02 0.02 0.02 0.02 0.02
0.02 0.02 0.01 0.01 0.01 0.02 0.03 0.03 0.03 0.03 0.02 0.01 0.02 0.02 0.01 0.01 0.01 0.00 0.01 0.01 0.01 0.00 0.00 0.01 0.01 0.02 0.02 0.02 0.02 0.02 0.02 0.01 0.01 0.01 0.01 0.02 0.02 0.02 0.02 0.03 0.03 0.03 0.03 0.03
0.01 0.01 0.01 0.01 0.01 0.02 0.04 0.04 0.04 0.03 0.02 0.01 0.01 0.01 0.01 0.01 0.01 0.01 0.00 0.00 0.00 0.00 0.01 0.01 0.02 0.02 0.03 0.03 0.03 0.02 0.02 0.01 0.01 0.01 0.02 0.02 0.02 0.03 0.04 0.04 0.04 0.04 0.05 0.04
0.01 0.01 0.00 0.00 0.01 0.01 0.03 0.04 0.03 0.03 0.02 0.01 0.01 0.01 0.01 0.01 0.01 0.01 0.00 0.00 0.00 0.01 0.01 0.01 0.02 0.03 0.03 0.03 0.03 0.03 0.02 0.02 0.02 0.02 0.03 0.03 0.03 0.03 0.04 0.05 0.03 0.02 0.03 0.02
0.01 0.01 0.01 0.01 0.01 0.01 0.02 0.03 0.03 0.02 0.01 0.01 0.01 0.01 0.01 0.02 0.01 0.01 0.01 0.00 0.00 0.00 0.00 0.00 0.01 0.01 0.02 0.03 0.02 0.01 0.01 0.02 0.02 0.03 0.04 0.04 0.03 0.02 0.02 0.02 0.02 0.01 0.01 0.01
0.01 0.01 0.01 0.01 0.01 0.01 0.03 0.03 0.02 0.01 0.01 0.01 0.01 0.01 0.01 0.02 0.02 0.01 0.01 0.01 0.00 0.00 0.00 0.00 0.00 0.01 0.02 0.03 0.02 0.02 0.02 0.02 0.03 0.04 0.04 0.04 0.03 0.02 0.02 0.01 0.01 0.01 0.01 0.01
0.01 0.01 0.01 0.01 0.01 0.02 0.02 0.02 0.02 0.02 0.02 0.01 0.01 0.01 0.01 0.01 0.02 0.01 0.01 0.01 0.01 0.00 0.00 0.00 0.00 0.01 0.02 0.04 0.02 0.02 0.02 0.02 0.03 0.03 0.04 0.04 0.03 0.02 0.02 0.02 0.01 0.02 0.03 0.02
0.01 0.01 0.01 0.01 0.01 0.01 0.02 0.01 0.01 0.02 0.02 0.02 0.01 0.01 0.01 0.01 0.01 0.01 0.01 0.01 0.01 0.01 0.01 0.01 0.01 0.02 0.03 0.03 0.03 0.02 0.01 0.02 0.03 0.03 0.03 0.03 0.03 0.03 0.02 0.02 0.03 0.03 0.02 0.03
0.01 0.01 0.01 0.01 0.01 0.01 0.01 0.01 0.01 0.02 0.02 0.02 0.01 0.01 0.01 0.01 0.01 0.01 0.01 0.01 0.01 0.01 0.01 0.01 0.01 0.02 0.02 0.02 0.02 0.02 0.02 0.02 0.02 0.02 0.02 0.03 0.03 0.02 0.02 0.02 0.03 0.05 0.03 0.02
0.01 0.01 0.01 0.02 0.01 0.01 0.01 0.01 0.01 0.01 0.01 0.01 0.01 0.01 0.00 0.00 0.01 0.01 0.01 0.01 0.01 0.01 0.01 0.01 0.01 0.01 0.01 0.02 0.02 0.01 0.02 0.02 0.02 0.01 0.01 0.03 0.03 0.02 0.01 0.02 0.04 0.07 0.05 0.03
0.01 0.01 0.01 0.01 0.01 0.01 0.01 0.00 0.00 0.01 0.01 0.00 0.00 0.01 0.00 0.00 0.00 0.00 0.01 0.01 0.01 0.01 0.01 0.01 0.00 0.01 0.01 0.02 0.02 0.02 0.01 0.01 0.02 0.02 0.01 0.01 0.02 0.02 0.01 0.01 0.03 0.05 0.05 0.05
0.00 0.01 0.01 0.01 0.01 0.00 0.00 0.01 0.01 0.00 0.01 0.01 0.00 0.01 0.01 0.00 0.01 0.01 0.01 0.02 0.01 0.01 0.01 0.01 0.01 0.01 0.01 0.01 0.02 0.03 0.02 0.01 0.01 0.01 0.01 0.01 0.02 0.02 0.02 0.01 0.02 0.03 0.04 0.05
0.01 0.01 0.01 0.01 0.01 0.00 0.01 0.01 0.01 0.01 0.01 0.02 0.01 0.01 0.01 0.01 0.01 0.02 0.03 0.04 0.02 0.01 0.01 0.01 0.02 0.02 0.01 0.02 0.02 0.02 0.02 0.01 0.01 0.01 0.01 0.01 0.02 0.02 0.01 0.01 0.01 0.01 0.02 0.04
0.01 0.02 0.01 0.01 0.01 0.01 0.01 0.01 0.01 0.02 0.03 0.02 0.02 0.01 0.01 0.01 0.01 0.02 0.03 0.05 0.02 0.02 0.02 0.02 0.02 0.03 0.03 0.03 0.03 0.03 0.03 0.02 0.02 0.01 0.00 0.01 0.01 0.02 0.01 0.01 0.01 0.01 0.01 0.02
0.01 0.02 0.02 0.02 0.02 0.02 0.02 0.04 0.03 0.02 0.02 0.02 0.01 0.01 0.01 0.01 0.01 0.01 0.02 0.02 0.02 0.01 0.02 0.02 0.02 0.02 0.03 0.04 0.04 0.04 0.04 0.03 0.02 0.02 0.01 0.01 0.01 0.02 0.02 0.02 0.02 0.02 0.02 0.02
0.01 0.02 0.03 0.03 0.03 0.02 0.04 0.04 0.03 0.01 0.01 0.01 0.01 0.01 0.01 0.02 0.02 0.02 0.02 0.01 0.01 0.01 0.01 0.01 0.02 0.02 0.03 0.04 0.04 0.05 0.04 0.03 0.02 0.02 0.01 0.01 0.01 0.02 0.03 0.03 0.03 0.02 0.02 0.03
0.01 0.02 0.02 0.02 0.02 0.03 0.02 0.01 0.01 0.01 0.01 0.01 0.01 0.01 0.01 0.02 0.02 0.01 0.01 0.01 0.01 0.01 0.01 0.01 0.01 0.02 0.03 0.04 0.04 0.04 0.05 0.04 0.03 0.02 0.01 0.02 0.02 0.02 0.03 0.04 0.03 0.03 0.02 0.02
0.01 0.02 0.03 0.03 0.03 0.03 0.02 0.01 0.01 0.01 0.01 0.02 0.01 0.01 0.01 0.01 0.01 0.01 0.01 0.00 0.01 0.01 0.01 0.01 0.01 0.02 0.03 0.04 0.04 0.03 0.04 0.04 0.04 0.02 0.02 0.02 0.02 0.02 0.03 0.04 0.03 0.02 0.02 0.02
0.01 0.03 0.04 0.05 0.05 0.04 0.03 0.02 0.01 0.01 0.01 0.02 0.02 0.02 0.03 0.01 0.01 0.01 0.01 0.00 0.01 0.01 0.01 0.01 0.01 0.02 0.03 0.03 0.04 0.04 0.04 0.04 0.04 0.03 0.02 0.02 0.01 0.01 0.02 0.02 0.02 0.02 0.02 0.03
MSLP
1012.15 1012.89 1013.51 1013.99 1014.32 1014.51 1014.56 1014.47 1014.26 1013.94 1013.51 1012.99 1012.40 1011.76 1011.10 1010.47 1009.86 1009.31 1008.80 1008.31 1007.84 1007.37 1006.90 1006.44 1006.03 1005.71 1005.54 1005.56 1005.79 1006.24 1006.89 1007.66 1008.51 1009.35 1010.12 1010.78 1011.31 1011.72 1012.04 1012.33 1012.62 1012.96 1013.38 1013.89
1012.70 1013.34 1013.87 1014.29 1014.59 1014.78 1014.85 1014.81 1014.64 1014.34 1013.90 1013.33 1012.66 1011.91 1011.14 1010.38 1009.69 1009.08 1008.54 1008.07 1007.62 1007.16 1006.68 1006.18 1005.69 1005.25 1004.93 1004.80 1004.90 1005.25 1005.85 1006.64 1007.56 1008.51 1009.42 1010.22 1010.88 1011.39 1011.78 1012.11 1012.41 1012.76 1013.18 1013.70
1013.28 1013.79 1014.22 1014.56 1014.83 1015.03 1015.15 1015.18 1015.07 1014.82 1014.39 1013.79 1013.05 1012.21 1011.32 1010.46 1009.67 1009.00 1008.44 1007.96 1007.53 1007.09 1006.60 1006.06 1005.49 1004.93 1004.46 1004.16 1004.10 1004.32 1004.84 1005.61 1006.55 1007.58 1008.61 1009.54 1010.34 1010.97 1011.45 1011.84 1012.18 1012.55 1012.98 1013.51
1013.92 1014.28 1014.59 1014.86 1015.10 1015.32 1015.51 1015.62 1015.61 1015.43 1015.04 1014.44 1013.65 1012.72 1011.73 1010.76 1009.89 1009.14 1008.54 1008.05 1007.62 1007.19 1006.70 1006.12 1005.47 1004.79 1004.17 1003.70 1003.47 1003.53 1003.94 1004.64 1005.57 1006.64 1007.74 1008.79 1009.70 1010.45 1011.03 1011.50 1011.90 1012.31 1012.76 1013.30
1014.64 1014.84 1015.03 1015.22 1015.45 1015.71 1015.97 1016.19 1016.28 1016.19 1015.87 1015.29 1014.47 1013.48 1012.40 1011.32 1010.35 1009.52 1008.86 1008.34 1007.89 1007.45 1006.95 1006.34 1005.62 1004.84 1004.08 1003.44 1003.04 1002.93 1003.19 1003.78 1004.66 1005.72 1006.86 1007.97 1008.98 1009.83 1010.52 1011.08 1011.55 1012.01 1012.50 1013.06
1015.45 1015.50 1015.57 1015.70 1015.91 1016.21 1016.55 1016.88 1017.09 1017.10 1016.85 1016.30 1015.48 1014.43 1013.27 1012.10 1011.02 1010.10 1009.36 1008.78 1008.31 1007.85 1007.32 1006.68 1005.90 1005.04 1004.16 1003.37 1002.80 1002.52 1002.61 1003.07 1003.85 1004.85 1005.98 1007.13 1008.20 1009.14 1009.91 1010.56 1011.11 1011.63 1012.17 1012.76
1016.32 1016.24 1016.21 1016.29 1016.49 1016.83 1017.24 1017.66 1017.97 1018.08 1017.90 1017.39 1016.56 1015.48 1014.25 1012.98 1011.80 1010.78 1009.96 1009.31 1008.78 1008.28 1007.73 1007.05 1006.24 1005.30 1004.33 1003.42 1002.69 1002.25 1002.18 1002.48 1003.13 1004.04 1005.13 1006.27 1007.37 1008.37 1009.23 1009.95 1010.59 1011.18 1011.78 1012.42
1017.18 1017.01 1016.92 1016.95 1017.15 1017.51 1017.97 1018.46 1018.85 1019.02 1018.89 1018.40 1017.58 1016.47 1015.18 1013.84 1012.56 1011.45 1010.53 1009.81 1009.21 1008.67 1008.08 1007.37 1006.52 1005.53 1004.49 1003.48 1002.63 1002.04 1001.81 1001.96 1002.47 1003.28 1004.29 1005.40 1006.51 1007.55 1008.48 1009.28 1010.00 1010.66 1011.33 1012.02
1017.97 1017.75 1017.62 1017.62 1017.81 1018.18 1018.66 1019.17 1019.58 1019.78 1019.68 1019.21 1018.38 1017.25 1015.93 1014.53 1013.18 1011.99 1010.99 1010.18 1009.52 1008.92 1008.29 1007.55 1006.66 1005.64 1004.54 1003.46 1002.51 1001.81 1001.44 1001.45 1001.84 1002.53 1003.47 1004.53 1005.64 1006.71 1007.69 1008.57 1009.37 1010.11 1010.84 1011.59
1018.60 1018.38 1018.23 1018.23 1018.40 1018.74 1019.20 1019.68 1020.08 1020.26 1020.15 1019.67 1018.84 1017.71 1016.37 1014.95 1013.57 1012.32 1011.25 1010.38 1009.65 1008.98 1008.30 1007.52 1006.61 1005.56 1004.42 1003.29 1002.28 1001.48 1001.02 1000.91 1001.18 1001.79 1002.65 1003.68 1004.78 1005.88 1006.92 1007.86 1008.73 1009.55 1010.34 1011.14
1019.03 1018.83 1018.70 1018.69 1018.82 1019.11 1019.50 1019.92 1020.24 1020.37 1020.22 1019.73 1018.90 1017.78 1016.47 1015.06 1013.68 1012.41 1011.31 1010.39 1009.60 1008.87 1008.13 1007.31 1006.36 1005.27 1004.11 1002.95 1001.89 1001.04 1000.49 1000.31 1000.50 1001.03 1001.84 1002.84 1003.95 1005.08 1006.17 1007.19 1008.13 1009.01 1009.85 1010.70
1019.26 1019.11 1019.00 1018.97 1019.06 1019.27 1019.56 1019.86 1020.07 1020.11 1019.90 1019.39 1018.57 1017.50 1016.24 1014.89 1013.55 1012.31 1011.22 1010.27 1009.43 1008.65 1007.85 1006.97 1005.97 1004.85 1003.66 1002.47 1001.38 1000.49 999.90 999.66 999.79 1000.28 1001.05 1002.05 1003.17 1004.33 1005.48 1006.56 1007.57 1008.51 1009.40 1010.28
1019.34 1019.24 1019.14 1019.09 1019.12 1019.22 1019.38 1019.54 1019.62 1019.55 1019.27 1018.74 1017.95 1016.94 1015.77 1014.52 1013.27 1012.10 1011.04 1010.09 1009.23 1008.40 1007.54 1006.60 1005.54 1004.38 1003.15 1001.93 1000.81 999.89 999.27 999.00 999.10 999.55 1000.31 1001.30 1002.44 1003.65 1004.84 1005.99 1007.05 1008.04 1008.98 1009.88
1019.35 1019.29 1019.19 1019.10 1019.04 1019.02 1019.03 1019.03 1018.97 1018.79 1018.44 1017.89 1017.14 1016.22 1015.17 1014.05 1012.94 1011.87 1010.87 1009.95 1009.08 1008.21 1007.29 1006.28 1005.16 1003.95 1002.67 1001.42 1000.28 999.34 998.69 998.39 998.46 998.89 999.64 1000.63 1001.78 1003.02 1004.26 1005.45 1006.57 1007.61 1008.57 1009.49
1019.38 1019.33 1019.21 1019.06 1018.91 1018.76 1018.61 1018.45 1018.25 1017.95 1017.54 1016.98 1016.29 1015.47 1014.55 1013.59 1012.62 1011.67 1010.77 1009.89 1009.03 1008.13 1007.16 1006.09 1004.91 1003.64 1002.32 1001.04 999.86 998.89 998.22 997.89 997.93 998.33 999.05 1000.03 1001.19 1002.44 1003.71 1004.95 1006.11 1007.18 1008.17 1009.09
1019.50 1019.43 1019.26 1019.04 1018.78 1018.50 1018.21 1017.90 1017.56 1017.16 1016.69 1016.14 1015.49 1014.77 1013.99 1013.18 1012.35 1011.54 1010.73 1009.92 1009.07 1008.16 1007.16 1006.05 1004.82 1003.50 1002.15 1000.83 999.63 998.63 997.92 997.55 997.54 997.90 998.57 999.52 1000.66 1001.91 1003.19 1004.44 1005.63 1006.73 1007.74 1008.68
1019.73 1019.61 1019.39 1019.08 1018.72 1018.32 1017.90 1017.45 1016.99 1016.51 1015.99 1015.43 1014.83 1014.19 1013.53 1012.85 1012.15 1011.46 1010.74 1009.99 1009.18 1008.28 1007.27 1006.13 1004.88 1003.54 1002.16 1000.82 999.59 998.56 997.81 997.38 997.31 997.60 998.21 999.09 1000.18 1001.40 1002.67 1003.93 1005.13 1006.26 1007.29 1008.24
1020.05 1019.86 1019.57 1019.19 1018.74 1018.23 1017.70 1017.15 1016.59 1016.03 1015.46 1014.89 1014.32 1013.74 1013.16 1012.57 1011.98 1011.38 1010.74 1010.06 1009.29 1008.42 1007.42 1006.30 1005.06 1003.72 1002.35 1001.01 999.77 998.71 997.91 997.42 997.26 997.45 997.97 998.76 999.77 1000.93 1002.16 1003.41 1004.62 1005.75 1006.81 1007.77
1020.37 1020.12 1019.77 1019.33 1018.80 1018.22 1017.61 1016.97 1016.34 1015.72 1015.11 1014.52 1013.95 1013.40 1012.86 1012.33 1011.80 1011.26 1010.69 1010.06 1009.34 1008.52 1007.57 1006.49 1005.30 1004.01 1002.68 1001.36 1000.12 999.04 998.20 997.63 997.38 997.45 997.84 998.51 999.42 1000.49 1001.67 1002.88 1004.08 1005.23 1006.31 1007.30
1020.61 1020.31 1019.91 1019.42 1018.85 1018.22 1017.56 1016.88 1016.20 1015.53 1014.88 1014.27 1013.68 1013.12 1012.60 1012.09 1011.59 1011.09 1010.55 1009.97 1009.31 1008.56 1007.68 1006.69 1005.57 1004.37 1003.10 1001.83 1000.62 999.54 998.64 998.00 997.63 997.58 997.83 998.36 999.14 1000.11 1001.21 1002.38 1003.56 1004.71 1005.81 1006.83
1020.68 1020.34 1019.91 1019.39 1018.81 1018.17 1017.49 1016.79 1016.09 1015.40 1014.73 1014.08 1013.47 1012.90 1012.35 1011.84 1011.35 1010.86 1010.36 1009.82 1009.23 1008.55 1007.77 1006.88 1005.87 1004.77 1003.60 1002.40 1001.23 1000.14 999.21 998.49 998.01 997.82 997.92 998.30 998.93 999.78 1000.79 1001.90 1003.06 1004.21 1005.32 1006.37
1020.52 1020.15 1019.71 1019.19 1018.61 1017.99 1017.32 1016.64 1015.95 1015.26 1014.58 1013.92 1013.29 1012.70 1012.14 1011.61 1011.11 1010.63 1010.15 1009.66 1009.13 1008.54 1007.86 1007.08 1006.20 1005.22 1004.15 1003.04 1001.91 1000.84 999.87 999.07 998.48 998.15 998.09 998.31 998.80 999.52 1000.43 1001.47 1002.59 1003.73 1004.85 1005.92
1020.11 1019.72 1019.28 1018.77 1018.22 1017.63 1017.01 1016.37 1015.72 1015.06 1014.40 1013.76 1013.13 1012.53 1011.96 1011.42 1010.92 1010.45 1010.00 1009.55 1009.09 1008.58 1008.01 1007.35 1006.59 1005.72 1004.76 1003.72 1002.65 1001.58 1000.58 999.70 999.01 998.54 998.34 998.40 998.74 999.33 1000.13 1001.09 1002.15 1003.27 1004.40 1005.48
1019.48 1019.08 1018.64 1018.16 1017.64 1017.11 1016.54 1015.97 1015.38 1014.78 1014.17 1013.57 1012.98 1012.40 1011.85 1011.33 1010.85 1010.40 1009.98 1009.58 1009.18 1008.75 1008.27 1007.71 1007.05 1006.28 1005.40 1004.43 1003.39 1002.33 1001.30 1000.36 999.57 998.98 998.63 998.55 998.74 999.19 999.88 1000.76 1001.76 1002.85 1003.96 1005.05
1018.71 1018.29 1017.84 1017.38 1016.91 1016.42 1015.94 1015.44 1014.93 1014.42 1013.90 1013.37 1012.84 1012.33 1011.83 1011.35 1010.91 1010.51 1010.13 1009.78 1009.43 1009.06 1008.65 1008.16 1007.58 1006.88 1006.06 1005.14 1004.12 1003.06 1002.00 1001.01 1000.13 999.43 998.96 998.74 998.80 999.13 999.71 1000.49 1001.42 1002.46 1003.55 1004.63
1017.87 1017.42 1016.97 1016.52 1016.08 1015.65 1015.23 1014.82 1014.42 1014.01 1013.59 1013.17 1012.75 1012.32 1011.91 1011.51 1011.13 1010.78 1010.45 1010.14 1009.84 1009.51 1009.14 1008.69 1008.15 1007.49 1006.71 1005.81 1004.81 1003.74 1002.66 1001.62 1000.68 999.90 999.33 999.00 998.94 999.15 999.62 1000.30 1001.16 1002.13 1003.17 1004.24
Thickness
5720 5707 5699 5704 5708 5708 5704 5697 5695 5701 5711 5704 5699 5700 5706 5709 5709 5708 5707 5708 5709 5710 5714 5715 5715 5714 5712 5710 5708 5707 5705 5704 5702 5700 5697 5695 5694 5694 5694 5693 5692 5692 5691 5690
5702 5698 5710 5713 5711 5707 5701 5693 5692 5699 5707 5701 5694 5695 5703 5706 5706 5708 5708 5707 5708 5708 5709 5710 5711 5710 5709 5707 5706 5705 5703 5702 5700 5698 5696 5694 5692 5691 5690 5689 5688 5688 5687 5686
5697 5704 5713 5709 5703 5698 5695 5692 5692 5693 5697 5696 5692 5688 5695 5703 5706 5708 5709 5708 5708 5708 5707 5707 5706 5706 5706 5704 5703 5703 5701 5699 5698 5696 5693 5691 5688 5687 5685 5685 5684 5684 5683 5682
5697 5705 5706 5701 5698 5696 5688 5700 5698 5693 5683 5675 5683 5667 5685 5693 5697 5701 5703 5703 5704 5706 5706 5704 5704 5703 5703 5703 5702 5701 5699 5696 5694 5693 5690 5687 5684 5681 5681 5681 5681 5680 5680 5679
5692 5700 5698 5695 5699 5699 5695 5700 5695 5689 5679 5670 5673 5664 5674 5687 5688 5695 5699 5701 5703 5704 5704 5703 5702 5702 5701 5701 5699 5698 5696 5694 5692 5690 5688 5685 5682 5680 5679 5678 5677 5676 5675 5674
5693 5701 5700 5698 5703 5701 5696 5689 5681 5672 5666 5656 5665 5660 5664 5678 5687 5694 5699 5700 5702 5701 5701 5700 5700 5698 5697 5696 5695 5694 5692 5689 5688 5686 5684 5682 5680 5678 5675 5674 5672 5671 5670 5670
5680 5688 5696 5700 5691 5690 5685 5667 5651 5648 5642 5646 5661 5658 5664 5686 5693 5695 5696 5697 5699 5698 5697 5696 5694 5692 5692 5691 5690 5689 5687 5685 5684 5683 5681 5680 5678 5676 5673 5671 5669 5667 5665 5665
5662 5663 5683 5690 5685 5678 5675 5667 5647 5638 5635 5642 5654 5652 5669 5688 5692 5694 5695 5695 5694 5693 5693 5692 5691 5689 5688 5687 5686 5684 5682 5681 5680 5679 5678 5677 5675 5673 5671 5669 5667 5665 5664 5662
5655 5659 5680 5686 5688 5681 5668 5661 5662 5644 5640 5636 5642 5654 5671 5684 5685 5687 5687 5688 5687 5688 5688 5688 5687 5686 5685 5683 5682 5681 5679 5678 5677 5676 5675 5674 5672 5670 5668 5667 5665 5663 5661 5659
5662 5655 5668 5676 5680 5675 5671 5660 5647 5638 5629 5626 5637 5645 5653 5670 5674 5678 5679 5679 5681 5682 5682 5683 5682 5681 5681 5680 5680 5678 5677 5675 5674 5673 5671 5671 5669 5667 5665 5662 5661 5659 5657 5655
5662 5650 5654 5661 5660 5658 5657 5653 5645 5636 5633 5624 5624 5639 5666 5668 5671 5671 5674 5675 5676 5676 5677 5678 5678 5678 5677 5676 5675 5674 5673 5671 5670 5669 5667 5666 5665 5663 5661 5659 5657 5655 5653 5651
5652 5640 5636 5647 5659 5663 5659 5652 5642 5633 5627 5625 5622 5635 5669 5668 5669 5669 5670 5671 5672 5672 5672 5673 5673 5672 5671 5670 5670 5669 5669 5668 5666 5665 5663 5662 5660 5658 5656 5655 5653 5651 5649 5647
5646 5634 5625 5630 5640 5649 5649 5647 5645 5636 5626 5617 5618 5635 5662 5663 5664 5665 5666 5666 5666 5667 5667 5667 5666 5666 5666 5665 5665 5665 5665 5664 5662 5660 5658 5656 5655 5653 5651 5650 5648 5647 5645 5642
5644 5627 5623 5621 5626 5633 5637 5642 5641 5634 5621 5617 5623 5635 5650 5655 5657 5659 5660 5661 5661 5661 5661 5661 5660 5660 5661 5660 5660 5659 5659 5659 5657 5655 5653 5651 5650 5648 5647 5645 5643 5642 5640 5638
5634 5621 5623 5626 5631 5632 5633 5637 5637 5632 5629 5624 5631 5634 5646 5651 5653 5654 5655 5655 5655 5656 5657 5657 5656 5655 5655 5655 5655 5654 5654 5654 5652 5650 5648 5646 5645 5643 5641 5640 5638 5636 5634 5633
5621 5617 5618 5620 5626 5625 5626 5631 5632 5633 5632 5629 5632 5636 5648 5650 5649 5648 5648 5650 5650 5650 5652 5652 5652 5651 5651 5651 5650 5649 5648 5647 5646 5644 5643 5641 5639 5637 5635 5634 5632 5630 5628 5626
5610 5608 5605 5603 5613 5616 5614 5627 5630 5630 5633 5632 5628 5637 5643 5642 5643 5644 5644 5645 5645 5646 5647 5647 5647 5647 5647 5647 5646 5644 5643 5641 5639 5638 5637 5635 5634 5631 5630 5629 5626 5624 5622 5620
5602 5599 5592 5592 5600 5597 5618 5631 5631 5628 5630 5632 5634 5637 5639 5640 5641 5642 5642 5641 5641 5642 5642 5642 5642 5642 5643 5643 5641 5639 5637 5635 5633 5631 5630 5629 5627 5626 5624 5622 5620 5618 5617 5614
5601 5595 5586 5583 5586 5595 5613 5624 5624 5621 5623 5629 5628 5632 5633 5634 5634 5634 5638 5638 5638 5638 5638 5637 5638 5637 5637 5636 5635 5633 5630 5629 5627 5625 5623 5623 5621 5619 5617 5616 5614 5613 5611 5609
5593 5590 5582 5577 5581 5584 5606 5621 5624 5620 5614 5624 5624 5624 5624 5624 5618 5625 5632 5633 5633 5633 5632 5631 5631 5631 5630 5630 5629 5626 5624 5622 5621 5620 5619 5618 5616 5614 5612 5610 5609 5607 5605 5604
5583 5578 5575 5572 5575 5585 5605 5614 5617 5601 5606 5619 5620 5620 5618 5617 5621 5625 5626 5626 5626 5626 5626 5625 5624 5623 5624 5623 5621 5619 5617 5616 5617 5616 5614 5612 5610 5608 5606 5605 5603 5601 5599 5597
5577 5572 5569 5567 5568 5580 5603 5604 5601 5602 5609 5612 5613 5614 5613 5614 5617 5618 5619 5618 5618 5618 5618 5618 5616 5616 5616 5616 5614 5612 5611 5612 5611 5609 5607 5605 5604 5602 5601 5598 5596 5594 5592 5590
5573 5576 5574 5575 5580 5590 5595 5597 5602 5602 5602 5604 5605 5607 5607 5607 5608 5610 5610 5610 5610 5610 5610 5610 5609 5608 5608 5608 5608 5605 5605 5604 5602 5601 5599 5598 5597 5595 5593 5591 5589 5587 5586 5584
5570 5572 5570 5571 5579 5585 5589 5592 5596 5597 5598 5600 5601 5602 5601 5600 5600 5600 5601 5601 5601 5601 5601 5601 5601 5600 5600 5600 5600 5599 5599 5597 5595 5593 5592 5590 5589 5587 5585 5584 5582 5580 5579 5577
5565 5564 5563 5564 5572 5578 5584 5586 5589 5591 5592 5593 5594 5594 5594 5594 5593 5593 5593 5593 5593 5594 5594 5593 5593 5592 5592 5592 5591 5591 5591 5589 5587 5586 5585 5583 5582 5580 5578 5576 5575 5574 5574 5573
5556 5558 5557 5562 5569 5568 5574 5581 5583 5583 5584 5585 5586 5586 5587 5587 5586 5586 5585 5585 5586 5586 5586 5585 5584 5584 5584 5584 5583 5583 5582 5582 5580 5578 5577 5576 5575 5572 5570 5568 5566 5566 5566 5566